EN

Hourly Weather Witham

Today, 25 January, Monday

Time Temperature Precipitation Wind Pressure Humidity
00:00 -1°C° 0 mm 5 mps 745 mmHg 87%
01:00 -2°C° 0 mm 5 mps 746 mmHg 87%
02:00 -2°C° 0 mm 5 mps 747 mmHg 87%
03:00 -4°C° 0 mm 5 mps 748 mmHg 87%
04:00 -4°C° 0 mm 5 mps 748 mmHg 87%
05:00 -4°C° 0 mm 5 mps 749 mmHg 87%
06:00 -4°C° 0 mm 5 mps 750 mmHg 87%
07:00 -4°C° 0 mm 5 mps 750 mmHg 85%
08:00 -4°C° 0 mm 5 mps 751 mmHg 83%
09:00 -2°C° 0 mm 5 mps 752 mmHg 82%
10:00 -1°C° 0 mm 5 mps 752 mmHg 81%
11:00 0°C° 0 mm 5 mps 753 mmHg 80%
12:00 +1°C° 0 mm 6 mps 753 mmHg 79%
13:00 +1°C° 0 mm 6 mps 753 mmHg 80%
14:00 +1°C° 0 mm 6 mps 754 mmHg 80%
15:00 +2°C° 0 mm 6 mps 754 mmHg 81%
16:00 +1°C° 0 mm 6 mps 754 mmHg 83%
17:00 -1°C° 0 mm 6 mps 755 mmHg 86%
18:00 -2°C° 0 mm 7 mps 755 mmHg 88%
19:00 -2°C° 0 mm 6 mps 756 mmHg 88%
20:00 -2°C° 0 mm 6 mps 756 mmHg 88%
21:00 -2°C° 0 mm 6 mps 757 mmHg 88%
22:00 -2°C° 0 mm 6 mps 757 mmHg 88%
23:00 -3°C° 0 mm 6 mps 758 mmHg 87%

Tomorrow, 26 January, Tuesday

Time Temperature Precipitation Wind Pressure Humidity
00:00 -3°C° 0 mm 6 mps 758 mmHg 87%
01:00 -2°C° 0 mm 5 mps 758 mmHg 87%
02:00 -2°C° 0 mm 5 mps 758 mmHg 86%
03:00 -2°C° 0 mm 5 mps 759 mmHg 86%
04:00 -2°C° 0 mm 4 mps 759 mmHg 87%
05:00 -3°C° 0 mm 4 mps 759 mmHg 88%
06:00 -3°C° 0 mm 4 mps 759 mmHg 89%
07:00 -2°C° 0 mm 4 mps 760 mmHg 88%
08:00 -2°C° 0 mm 4 mps 760 mmHg 87%
09:00 0°C° 0 mm 3 mps 760 mmHg 85%
10:00 0°C° 0 mm 4 mps 760 mmHg 82%
11:00 +1°C° 0 mm 4 mps 760 mmHg 78%
12:00 +3°C° 0 mm 4 mps 760 mmHg 74%
13:00 +4°C° 0 mm 4 mps 760 mmHg 77%
14:00 +4°C° 0 mm 4 mps 760 mmHg 79%
15:00 +4°C° 0 mm 4 mps 759 mmHg 81%
16:00 +4°C° 0.1 mm 4 mps 759 mmHg 84%
17:00 +3°C° 0.1 mm 4 mps 759 mmHg 88%
18:00 +2°C° 0.1 mm 5 mps 759 mmHg 91%
19:00 +2°C° 0.3 mm 5 mps 758 mmHg 92%
20:00 +2°C° 0.3 mm 6 mps 758 mmHg 93%
21:00 +2°C° 0.3 mm 6 mps 757 mmHg 94%
22:00 +2°C° 0.5 mm 6 mps 757 mmHg 94%
23:00 +3°C° 0.5 mm 6 mps 757 mmHg 94%

Day after tomorrow, 27 January, Wednesday

Time Temperature Precipitation Wind Pressure Humidity
00:00 +3°C° 0.5 mm 6 mps 757 mmHg 94%
01:00 +3°C° 0.1 mm 5 mps 756 mmHg 95%
02:00 +3°C° 0.1 mm 5 mps 756 mmHg 96%
03:00 +4°C° 0.1 mm 4 mps 755 mmHg 97%
04:00 +4°C° 0 mm 4 mps 755 mmHg 97%
05:00 +4°C° 0 mm 3 mps 756 mmHg 97%
06:00 +4°C° 0 mm 3 mps 756 mmHg 97%
07:00 +4°C° 0.2 mm 3 mps 756 mmHg 97%
08:00 +4°C° 0.2 mm 3 mps 756 mmHg 97%
09:00 +5°C° 0.2 mm 2 mps 756 mmHg 97%
10:00 +6°C° 0.2 mm 2 mps 756 mmHg 97%
11:00 +6°C° 0.2 mm 2 mps 757 mmHg 97%
12:00 +6°C° 0.2 mm 2 mps 757 mmHg 97%
13:00 +6°C° 0.2 mm 2 mps 757 mmHg 97%
14:00 +6°C° 0.2 mm 2 mps 756 mmHg 97%
15:00 +6°C° 0.2 mm 2 mps 756 mmHg 97%
16:00 +6°C° 0 mm 2 mps 756 mmHg 97%
17:00 +6°C° 0 mm 2 mps 756 mmHg 97%
18:00 +6°C° 0 mm 2 mps 755 mmHg 97%
19:00 +7°C° 0.1 mm 2 mps 755 mmHg 97%
20:00 +7°C° 0.1 mm 2 mps 754 mmHg 98%
21:00 +7°C° 0.1 mm 3 mps 754 mmHg 98%
22:00 +7°C° 1.1 mm 3 mps 753 mmHg 98%
23:00 +7°C° 1.1 mm 4 mps 752 mmHg 98%

28 January, Thursday

Time Temperature Precipitation Wind Pressure Humidity
00:00 +7°C° 1.1 mm 4 mps 751 mmHg 98%
01:00 +8°C° 0.2 mm 5 mps 750 mmHg 97%
02:00 +8°C° 0.2 mm 6 mps 749 mmHg 95%
03:00 +9°C° 0.2 mm 7 mps 748 mmHg 94%
04:00 +9°C° 0.1 mm 7 mps 748 mmHg 93%
05:00 +9°C° 0.1 mm 7 mps 748 mmHg 92%
06:00 +9°C° 0.1 mm 8 mps 747 mmHg 91%
07:00 +9°C° 0 mm 8 mps 748 mmHg 89%
08:00 +10°C° 0 mm 8 mps 748 mmHg 87%
09:00 +10°C° 0 mm 8 mps 749 mmHg 85%
10:00 +10°C° 0 mm 8 mps 749 mmHg 83%
11:00 +10°C° 0 mm 8 mps 750 mmHg 81%
12:00 +10°C° 0 mm 8 mps 750 mmHg 79%
13:00 +10°C° 0 mm 8 mps 750 mmHg 79%
14:00 +10°C° 0 mm 8 mps 750 mmHg 80%
15:00 +10°C° 0 mm 8 mps 750 mmHg 81%
16:00 +10°C° 0 mm 7 mps 750 mmHg 82%
17:00 +9°C° 0 mm 7 mps 749 mmHg 84%
18:00 +9°C° 0 mm 6 mps 749 mmHg 85%
19:00 +9°C° 0.4 mm 7 mps 748 mmHg 86%
20:00 +9°C° 0.4 mm 8 mps 747 mmHg 88%
21:00 +9°C° 0.4 mm 8 mps 746 mmHg 89%
22:00 +10°C° 0.7 mm 9 mps 745 mmHg 87%
23:00 +9°C° 0.7 mm 10 mps 744 mmHg 84%

29 January, Friday

Time Temperature Precipitation Wind Pressure Humidity
00:00 +9°C° 0.7 mm 10 mps 744 mmHg 82%
01:00 +8°C° 0 mm 10 mps 744 mmHg 81%
02:00 +8°C° 0 mm 10 mps 745 mmHg 80%
03:00 +7°C° 0 mm 10 mps 745 mmHg 79%
04:00 +6°C° 0 mm 9 mps 746 mmHg 80%
05:00 +5°C° 0 mm 7 mps 746 mmHg 81%
06:00 +4°C° 0 mm 6 mps 747 mmHg 82%
07:00 +4°C° 0 mm 6 mps 747 mmHg 83%
08:00 +4°C° 0 mm 6 mps 747 mmHg 85%
09:00 +5°C° 0 mm 5 mps 748 mmHg 86%
10:00 +6°C° 0 mm 5 mps 748 mmHg 84%
11:00 +7°C° 0 mm 5 mps 747 mmHg 82%
12:00 +8°C° 0 mm 5 mps 747 mmHg 80%
13:00 +8°C° 0 mm 5 mps 747 mmHg 80%
14:00 +8°C° 0 mm 4 mps 746 mmHg 80%
15:00 +8°C° 0 mm 4 mps 746 mmHg 80%
16:00 +9°C° 0 mm 3 mps 745 mmHg 82%
17:00 +8°C° 0 mm 2 mps 745 mmHg 84%
18:00 +7°C° 0 mm 2 mps 745 mmHg 86%
19:00 +7°C° 0.1 mm 2 mps 745 mmHg 89%
20:00 +7°C° 0.1 mm 3 mps 745 mmHg 91%
21:00 +5°C° 0.1 mm 3 mps 745 mmHg 93%
22:00 +5°C° 0.1 mm 3 mps 745 mmHg 93%
23:00 +4°C° 0.1 mm 3 mps 746 mmHg 93%

30 January, Saturday

Time Temperature Precipitation Wind Pressure Humidity
00:00 +4°C° 0.1 mm 4 mps 747 mmHg 93%
01:00 +2°C° 0.4 mm 5 mps 748 mmHg 93%
02:00 +2°C° 0.4 mm 6 mps 748 mmHg 92%
03:00 0°C° 0.4 mm 8 mps 749 mmHg 92%
04:00 0°C° 0.1 mm 7 mps 750 mmHg 88%
05:00 0°C° 0.1 mm 7 mps 751 mmHg 84%
06:00 -1°C° 0.1 mm 6 mps 752 mmHg 79%
07:00 -1°C° 0 mm 6 mps 753 mmHg 80%
08:00 0°C° 0 mm 5 mps 754 mmHg 80%
09:00 0°C° 0 mm 4 mps 756 mmHg 81%
10:00 +1°C° 0 mm 4 mps 756 mmHg 77%
11:00 +3°C° 0 mm 4 mps 757 mmHg 72%
12:00 +4°C° 0 mm 4 mps 758 mmHg 68%
13:00 +5°C° 0 mm 4 mps 758 mmHg 69%
14:00 +5°C° 0 mm 3 mps 758 mmHg 69%
15:00 +6°C° 0 mm 2 mps 759 mmHg 70%
16:00 +5°C° 0 mm 2 mps 759 mmHg 75%
17:00 +4°C° 0 mm 2 mps 760 mmHg 80%
18:00 +2°C° 0 mm 2 mps 760 mmHg 85%
19:00 +2°C° 0 mm 2 mps 760 mmHg 86%
20:00 +3°C° 0 mm 1 mps 760 mmHg 87%
21:00 +2°C° 0 mm 1 mps 760 mmHg 88%
22:00 +2°C° 0 mm 1 mps 760 mmHg 88%
23:00 +2°C° 0 mm 1 mps 760 mmHg 88%
Show more